This demonstration page uses our WeatherBlox Daily Observations layout. Learn more.

Left ArrowRight Arrow

41.86663, -103.66717

Hourly Observations for October 1, 2017

Temp ( °F °C ) Dew Point ( °F °C ) Humidity (%) Winds ( mph kmh ) Pressure ( in mb ) Visibility ( mi km ) Precip ( " mm )
12:53 am 00:53 Clear 51 10.6 47 8.3 86 86 WSW 6 9 29.70 1006 10 16 N/A
1:53 am 01:53 Clear 50 10 45 7.2 83 83 N N/A 29.70 1006 10 16 N/A
2:53 am 02:53 Clear 48 8.9 44 6.7 86 86 N N/A 29.70 1006 10 16 N/A
3:53 am 03:53 Clear 51 10.6 43 6.1 74 74 SSW 5 7 29.66 1004 10 16 N/A
4:53 am 04:53 Clear 51 10.6 42 5.6 71 71 NNW 3 6 29.65 1004 10 16 N/A
5:53 am 05:53 Clear 50 10 42 5.6 74 74 SW 5 7 29.66 1004 10 16 N/A
6:53 am 06:53 Hazy 54 12.2 42 5.6 64 64 W 13 20 29.67 1005 6 10 N/A
7:30 am 07:30 Hazy 53 11.7 41 5 64 64 WNW 9 15 29.68 1005 2 3 N/A
7:37 am 07:37 Hazy 53 11.7 41 5 64 64 W 12 19 29.68 1005 3 5 N/A
7:53 am 07:53 Hazy 54 12.2 41 5 62 62 WNW 10 17 29.69 1005 3 4 N/A
8:53 am 08:53 Hazy 56 13.3 40 4.4 55 55 WNW 9 15 29.69 1005 3 4 N/A
9:15 am 09:15 Hazy 58 14.4 41 5 53 53 W 9 15 29.65 1004 3 5 N/A
9:42 am 09:42 Hazy 58 14.4 41 5 53 53 WNW 7 11 29.65 1004 3 4 N/A
9:53 am 09:53 Hazy 59 15 41 5 51 51 WNW 7 11 29.69 1006 2 3 N/A
10:46 am 10:46 Hazy 65 18.3 37 2.8 36 36 WNW 17 28 29.59 1002 2 3 N/A
10:53 am 10:53 Hazy 66 18.9 37 2.8 34 34 WNW 15 24 29.67 1005 2 3 N/A
11:06 am 11:06 Hazy 66 19 37 3 35 35 NW 20 31 29.59 1002 2 3 N/A
11:14 am 11:14 Hazy 66 19 37 3 35 35 WNW 22 35 29.59 1002 2 3 N/A
11:53 am 11:53 Hazy 65 18.3 37 2.8 36 36 W 14 22 29.67 1005 2 2 N/A
12:04 pm 12:04 Hazy 64 17.8 37 2.8 37 37 WNW 14 22 29.56 1001 2 3 N/A
12:12 pm 12:12 Hazy 64 18 37 3 37 37 WNW 16 26 29.56 1001 2 2 N/A
12:53 pm 12:53 Mostly Cloudy with Haze 62 16.7 37 2.8 40 40 WNW 13 20 29.67 1005 2 2 N/A
1:11 pm 13:11 Cloudy with Haze 62 16.7 37 2.8 40 40 WNW 7 11 29.62 1003 3 4 N/A
1:29 pm 13:29 Cloudy with Haze 62 16.7 37 2.8 40 40 W 9 15 29.62 1003 5 8 N/A
1:44 pm 13:44 Cloudy with Light Rain 63 17 37 3 39 39 W 13 20 29.62 1003 2 3 N/A
1:53 pm 13:53 Cloudy with Light Rain 62 16.7 39 3.9 43 43 WNW 15 24 29.68 1005 2 3 N/A
2:53 pm 14:53 Cloudy with Light Rain 56 13.3 40 4.4 55 55 W 20 31 29.72 1007 3 5 N/A
3:53 pm 15:53 Cloudy with Light Rain 50 10 44 6.7 80 80 W 8 13 29.75 1007 7 11 0.04 1.02
4:53 pm 16:53 Cloudy 49 9.4 45 7.2 86 86 SE 8 13 29.74 1007 10 16 0.11 2.79
5:53 pm 17:53 Sunny 51 10.6 45 7.2 80 80 E 8 13 29.71 1006 10 16 N/A
6:53 pm 18:53 Clear 48 8.9 45 7.2 89 89 ESE 6 9 29.73 1007 10 16 N/A
7:53 pm 19:53 Clear 46 7.8 44 6.7 93 93 ESE 3 6 29.73 1007 10 16 N/A
8:53 pm 20:53 Clear 46 7.8 43 6.1 89 89 NE 5 7 29.73 1007 10 16 N/A
9:53 pm 21:53 Clear 45 7.2 43 6.1 93 93 WSW 3 6 29.76 1008 10 16 N/A
10:53 pm 22:53 Clear 46 7.8 41 5 83 83 WNW 9 15 29.74 1007 10 16 N/A
11:53 pm 23:53 Clear 45 7.2 42 5.6 90 90 NW 5 7 29.75 1007 10 16 N/A

Powered by AerisWeather